Stations météo

réclame
Mon MeteoGroup
Kinbrace, Grande-Bretagne (99016): Température de l'air & dewpoint: 16.10.2017 05:00:00 - 22.10.2017 05:00:00 (BST)Kinbrace, Grande-Bretagne (99016): Vitesse du vent & gusts: 16.10.2017 05:00:00 - 22.10.2017 05:00:00 (BST)Kinbrace, Grande-Bretagne (99016): Direction du vent: 16.10.2017 05:00:00 - 22.10.2017 05:00:00 (BST)Kinbrace, Grande-Bretagne (99016): Quantités de précipitations: 16.10.2017 05:00:00 - 22.10.2017 05:00:00 (BST)
Date & Time tt [°C] td [°C] ff [km/h] ff [knt] fx [km/h] fx [knt] dd rr [mm]
22.10.2017 05:00:00 - - - - - - - 2,8
22.10.2017 04:00:00 9,0 8,7 2 1 - - E 2,8
22.10.2017 03:00:00 9,5 9,2 0 0 - - N 5,4
22.10.2017 02:00:00 9,1 8,9 2 1 - - ESE 0,4
22.10.2017 01:00:00 8,9 8,3 0 0 - - N 0,0
22.10.2017 00:00:00 10,7 9,8 11 6 - - SE 0,0
21.10.2017 23:00:00 10,9 9,9 9 5 - - SE 0,0
21.10.2017 22:00:00 11,3 9,6 9 5 - - SE 0,0
21.10.2017 21:00:00 11,3 9,5 9 5 - - SE -
21.10.2017 20:00:00 11,1 9,4 15 8 - - SE 0,0
21.10.2017 19:00:00 11,0 9,4 16 9 - - SE 0,0
21.10.2017 18:00:00 11,1 9,3 15 8 - - SE 0,0
21.10.2017 17:00:00 12,3 9,6 16 9 - - SE -
21.10.2017 16:00:00 12,5 10,3 22 12 - - SE 0,0
21.10.2017 15:00:00 13,0 11,0 21 11 - - SSE 0,0
21.10.2017 14:00:00 12,0 9,9 13 7 - - SSE 0,0
21.10.2017 13:00:00 12,2 9,8 13 7 - - SE 0,0
21.10.2017 12:00:00 11,9 10,0 21 11 - - SE 0,0
21.10.2017 11:00:00 11,6 10,1 22 12 - - SE 0,0
21.10.2017 10:00:00 11,0 10,0 26 14 - - SE 0,2
21.10.2017 09:00:00 10,7 9,9 29 16 - - SE 0,0
21.10.2017 08:00:00 10,8 9,8 26 14 - - SE 0,0
21.10.2017 07:00:00 - - - - - - - -
21.10.2017 06:00:00 - - - - - - - -
21.10.2017 05:00:00 - - - - - - - -
21.10.2017 04:00:00 - - - - - - - -
21.10.2017 03:00:00 - - - - - - - -
21.10.2017 02:00:00 - - - - - - - -
21.10.2017 01:00:00 - - - - - - - -
21.10.2017 00:00:00 - - - - - - - -
20.10.2017 23:00:00 - - - - - - - -
20.10.2017 22:00:00 - - - - - - - -
20.10.2017 21:00:00 - - - - - - - -
20.10.2017 20:00:00 11,3 10,4 18 10 - - ESE 0,0
20.10.2017 19:00:00 11,6 10,2 8 4 - - SE 0,0
20.10.2017 18:00:00 12,0 10,3 18 10 - - SE 0,0
20.10.2017 17:00:00 12,5 10,5 18 10 - - SE 0,0
20.10.2017 16:00:00 12,9 11,1 9 5 - - ESE 0,0
20.10.2017 15:00:00 13,6 10,9 4 2 - - NNW 0,0
20.10.2017 14:00:00 14,0 10,7 2 1 - - N 0,0
20.10.2017 13:00:00 13,2 10,9 0 0 - - N 0,0
20.10.2017 12:00:00 12,2 11,7 4 2 - - E 0,0
20.10.2017 11:00:00 11,0 10,9 2 1 - - SSE 0,0
20.10.2017 10:00:00 10,1 10,1 2 1 - - S 0,2
20.10.2017 09:00:00 9,6 9,6 0 0 - - N 0,0
20.10.2017 08:00:00 9,6 9,5 0 0 - - N 0,0
20.10.2017 07:00:00 9,9 9,8 5 3 - - N 0,0
20.10.2017 06:00:00 10,2 10,2 8 4 - - NNW 0,0
20.10.2017 05:00:00 10,5 10,3 9 5 - - N 0,2
20.10.2017 04:00:00 10,6 10,5 5 3 - - N 0,6
20.10.2017 03:00:00 10,7 10,5 5 3 - - N 1,8
20.10.2017 02:00:00 10,9 10,4 5 3 - - NNW 0,6
20.10.2017 01:00:00 11,3 10,5 8 4 - - SSE 0,4
20.10.2017 00:00:00 11,2 10,4 16 9 - - SE 0,0
19.10.2017 23:00:00 11,4 10,4 18 10 - - SE 0,0
19.10.2017 22:00:00 11,6 10,4 24 13 - - ESE 0,0
19.10.2017 21:00:00 11,7 10,4 18 10 - - SE 0,0
19.10.2017 20:00:00 11,8 10,3 28 15 - - SE 0,0
19.10.2017 19:00:00 11,7 10,3 24 13 - - SE 0,0
19.10.2017 18:00:00 12,1 10,4 21 11 - - SE 0,0
19.10.2017 17:00:00 12,3 10,7 18 10 - - ESE 0,0
19.10.2017 16:00:00 12,7 10,7 21 11 - - ESE 0,0
19.10.2017 15:00:00 12,9 10,7 22 12 - - SE 0,0
19.10.2017 14:00:00 12,5 10,4 24 13 - - SE 0,0
19.10.2017 13:00:00 12,4 10,4 22 12 - - SE 0,0
19.10.2017 12:00:00 12,1 10,2 22 12 - - SE 0,0
19.10.2017 11:00:00 11,6 10,1 21 11 - - SE 0,0
19.10.2017 10:00:00 11,3 9,8 22 12 - - SE 0,0
19.10.2017 09:00:00 10,8 9,3 18 10 - - SE 0,0
19.10.2017 08:00:00 10,4 8,9 13 7 - - SE 0,0
19.10.2017 07:00:00 10,4 8,9 26 14 - - SE 0,0
19.10.2017 06:00:00 9,9 8,6 18 10 - - SE 0,0
19.10.2017 05:00:00 9,4 8,2 18 10 - - ESE 0,0
19.10.2017 04:00:00 9,2 7,5 22 12 - - SE 0,0
19.10.2017 03:00:00 8,8 7,0 28 15 - - SSE 0,0
19.10.2017 02:00:00 8,6 6,9 16 9 - - SSE 0,0
19.10.2017 01:00:00 8,4 6,7 16 9 - - SE 0,0
19.10.2017 00:00:00 8,3 6,8 16 9 - - SE 0,0
18.10.2017 23:00:00 8,5 6,9 18 10 - - SE 0,0
18.10.2017 22:00:00 8,3 6,8 11 6 - - SE 0,0
18.10.2017 21:00:00 8,2 6,8 9 5 - - SE 0,2
18.10.2017 20:00:00 7,9 6,6 9 5 - - SSE 0,0
18.10.2017 19:00:00 8,2 6,8 15 8 - - SE 0,0
18.10.2017 18:00:00 8,3 6,6 11 6 - - SE 0,0
18.10.2017 17:00:00 9,2 5,9 13 7 - - SE 0,0
18.10.2017 16:00:00 9,4 5,9 15 8 - - SE 0,0
18.10.2017 15:00:00 8,5 6,6 16 9 - - SE 0,0
18.10.2017 14:00:00 9,8 5,4 16 9 - - SE 0,0
18.10.2017 13:00:00 10,0 5,7 15 8 - - SE 0,0
18.10.2017 12:00:00 9,5 5,2 16 9 - - ESE 0,0
18.10.2017 11:00:00 8,8 6,6 11 6 - - ESE 0,0
18.10.2017 10:00:00 6,8 6,1 2 1 - - WSW 0,0
18.10.2017 09:00:00 5,8 5,3 2 1 - - N 0,0
18.10.2017 08:00:00 5,5 4,9 0 0 - - N 0,0
18.10.2017 07:00:00 5,5 5,1 4 2 - - SSW 0,0
18.10.2017 06:00:00 5,0 4,7 9 5 - - E 0,0
18.10.2017 05:00:00 5,3 4,5 5 3 - - E 0,0
18.10.2017 04:00:00 5,9 4,8 8 4 - - E 0,0
18.10.2017 03:00:00 6,0 4,6 5 3 - - E 0,0
18.10.2017 02:00:00 6,1 5,2 11 6 - - E 0,0
18.10.2017 01:00:00 6,2 5,2 9 5 - - E 0,0
18.10.2017 00:00:00 6,2 5,4 9 5 - - ESE 0,0
17.10.2017 23:00:00 6,2 4,7 5 3 - - ENE 0,0
17.10.2017 22:00:00 5,3 4,3 8 4 - - N 0,0
17.10.2017 21:00:00 6,4 5,6 0 0 - - N 0,0
17.10.2017 20:00:00 7,1 6,1 8 4 - - N 0,0
17.10.2017 19:00:00 7,6 6,4 9 5 - - N 0,0
17.10.2017 18:00:00 8,2 6,6 21 11 - - N 0,0
17.10.2017 17:00:00 8,4 7,7 24 13 - - N 0,6
17.10.2017 16:00:00 8,9 8,3 26 14 - - N 0,4
17.10.2017 15:00:00 9,1 8,2 31 17 54 29 N 0,0
17.10.2017 14:00:00 9,4 8,9 31 17 54 29 N 0,4
17.10.2017 13:00:00 9,7 9,2 37 20 54 29 N 0,6
17.10.2017 12:00:00 10,3 9,9 29 16 46 25 N 0,4
17.10.2017 11:00:00 10,5 10,2 28 15 - - N 0,0
17.10.2017 10:00:00 11,1 10,8 26 14 - - N 0,4
17.10.2017 09:00:00 11,3 11,2 18 10 - - NW 0,2
17.10.2017 08:00:00 10,6 10,5 13 7 - - NW 0,2
17.10.2017 07:00:00 10,5 10,3 11 6 - - NW 0,0
17.10.2017 06:00:00 10,7 10,4 9 5 - - NNW 1,0
17.10.2017 05:00:00 11,1 10,5 15 8 - - ESE 0,8
17.10.2017 04:00:00 11,5 10,4 16 9 - - ESE 0,6
17.10.2017 03:00:00 11,4 10,4 24 13 - - ESE 0,6
17.10.2017 02:00:00 11,4 10,1 26 14 - - ESE 1,0
17.10.2017 01:00:00 11,6 10,0 28 15 - - ESE 0,2
17.10.2017 00:00:00 12,0 10,1 26 14 - - SE 0,0
16.10.2017 23:00:00 12,5 10,7 22 12 - - SE 0,6
16.10.2017 22:00:00 12,2 11,6 24 13 - - ESE 1,2
16.10.2017 21:00:00 11,3 10,8 26 14 61 33 ESE 0,8
16.10.2017 20:00:00 10,6 9,4 26 14 57 31 E 2,0
16.10.2017 19:00:00 9,8 8,6 35 19 59 32 E 1,0
16.10.2017 18:00:00 9,2 7,9 16 9 - - ESE 0,2
16.10.2017 17:00:00 9,2 7,9 9 5 - - ESE 0,0
16.10.2017 16:00:00 9,1 7,7 11 6 - - SE 0,0
16.10.2017 15:00:00 8,7 7,3 18 10 - - ESE 0,2
16.10.2017 14:00:00 8,5 7,2 8 4 - - E 0,4
16.10.2017 13:00:00 8,1 7,7 2 1 - - NW 2,6
16.10.2017 12:00:00 8,0 7,5 0 0 - - N 1,0
16.10.2017 11:00:00 7,7 7,1 4 2 - - SSW 1,2
16.10.2017 10:00:00 7,1 6,6 0 0 - - N 0,2
16.10.2017 09:00:00 6,8 6,0 4 2 - - N 0,0
16.10.2017 08:00:00 7,0 6,0 2 1 - - ESE 0,0
16.10.2017 07:00:00 6,7 6,0 2 1 - - WSW 0,0
16.10.2017 06:00:00 6,4 5,6 2 1 - - SSE 0,0
16.10.2017 05:00:00 6,9 5,9 2 1 - - SSW 0,0

tt = Température de l'air
td = dewpoint
ff = Vitesse du vent
fx = gusts
dd = Direction du vent
rr = Quantités de précipitations

stations d'obs. à proximité